This is the latest recevied weather packets stored in our database for station/object N8BAP. If no packets are shown the sender has not sent any weather packets the latest 1 day(s).
| Time | Temp. | Humidity | Pressure | Rain* | Wind** | Luminosity | Snow |
|---|---|---|---|---|---|---|---|
| 1778004667 | 20.56° C | 58% | 1014.4 hPa | 0 mm | 4.47 m/s, 254° | 355 W/m² | - |
| 1778004363 | 20.56° C | 57% | 1014.5 hPa | 0 mm | 5.36 m/s, 217° | 362 W/m² | - |
| 1778004060 | 20.56° C | 58% | 1014.5 hPa | 0 mm | 4.92 m/s, 234° | 378 W/m² | - |
| 1778003756 | 20.56° C | 58% | 1014.6 hPa | 0 mm | 4.02 m/s, 238° | 359 W/m² | - |
| 1778003453 | 20.56° C | 58% | 1014.3 hPa | 0 mm | 4.92 m/s, 246° | 370 W/m² | - |
| 1778003150 | 20.56° C | 58% | 1014.4 hPa | 0 mm | 5.81 m/s, 254° | 362 W/m² | - |
| 1778002845 | 20.56° C | 59% | 1014.6 hPa | 0 mm | 6.26 m/s, 266° | 383 W/m² | - |
| 1778002542 | 20.56° C | 59% | 1014.5 hPa | 0 mm | 3.58 m/s, 224° | 403 W/m² | - |
| 1778002239 | 20.56° C | 59% | 1014.4 hPa | 0 mm | 5.36 m/s, 245° | 329 W/m² | - |
| 1778001937 | 20° C | 59% | 1014.4 hPa | 0 mm | 4.02 m/s, 243° | 304 W/m² | - |
| 1778001633 | 20° C | 60% | 1014.7 hPa | 0 mm | 5.81 m/s, 242° | 292 W/m² | - |
| 1778001328 | 20° C | 61% | 1014.6 hPa | 0 mm | 2.24 m/s, 241° | 246 W/m² | - |
| 1778001025 | 20° C | 59% | 1014.7 hPa | 0 mm | 4.92 m/s, 235° | 197 W/m² | - |
| 1778000722 | 20° C | 61% | 1014.6 hPa | 0 mm | 3.13 m/s, 243° | 211 W/m² | - |
| 1778000418 | 20° C | 61% | 1014.8 hPa | 0 mm | 2.68 m/s, 241° | 149 W/m² | - |
| 1778000114 | 19.44° C | 62% | 1014.8 hPa | 0 mm | 3.13 m/s, 207° | 166 W/m² | - |
| 1777999809 | 19.44° C | 61% | 1014.6 hPa | 0 mm | 3.58 m/s, 207° | 144 W/m² | - |
| 1777999501 | 19.44° C | 62% | 1014.8 hPa | 0 mm | 2.68 m/s, 246° | 182 W/m² | - |
| 1777999198 | 19.44° C | 62% | 1014.5 hPa | 0 mm | 4.02 m/s, 247° | 126 W/m² | - |
| 1777998897 | 19.44° C | 61% | 1014.7 hPa | 0 mm | 4.92 m/s, 214° | 112 W/m² | - |
| 1777998596 | 19.44° C | 60% | 1014.8 hPa | 0 mm | 3.13 m/s, 215° | 140 W/m² | - |
| 1777998291 | 19.44° C | 60% | 1014.7 hPa | 0 mm | 5.36 m/s, 224° | 111 W/m² | - |
| 1777997988 | 19.44° C | 60% | 1014.6 hPa | 0 mm | 4.92 m/s, 244° | 173 W/m² | - |
| 1777997685 | 19.44° C | 60% | 1014.7 hPa | 0 mm | 4.47 m/s, 266° | 205 W/m² | - |
| 1777997382 | 19.44° C | 60% | 1014.6 hPa | 0 mm | 5.36 m/s, 231° | 262 W/m² | - |
* Rain latest hour (hover to see other rain measurements)
** Current wind speed in m/s (hover to see current wind gust speed)